Flag for U.S.A. Weather past 2 weeks in Hollywood, Florida, U.S.A.

Now
84 °F

Passing clouds.


Feels Like: 93 °F
Forecast: 81 / 90 °F
Wind: No wind

Location: Fort Lauderdale / Hollywood International Airport

Current Time: Aug 29, 2014 at 6:25:24 AM

Latest Report: Aug 29, 2014 at 5:53 AM


Visibility: 10 mi

Pressure: 30.01 "Hg

Humidity: 77%

Dew point: 76 °F

Location of HollywoodLocation

Historic Weather in Hollywood — Graph

°F

Hollywood temperature yesterday

Maximum temperature yesterday: 91 °F (at 12:53 PM)
Minimum temperature yesterday: 82 °F (at 7:53 AM)
Average temperature yesterday: 86 °F

Past Weeks' High & Low Weather Summary

 TemperatureHumidityPressure
High94 °F (Aug 24, 2:53 PM)97% (Aug 15, 2:53 PM)30.11 "Hg (Aug 15, 2:53 PM)
Low73 °F (Aug 15, 2:53 PM)46% (Aug 19, 3:53 PM)29.71 "Hg (Aug 25, 4:53 PM)
Average86 °F70%29.97 "Hg
* Reported Aug 14 4:53 AM — Aug 29 4:53 AM, Hollywood, Weather by CustomWeather, © 2014

Note: Actual official high and low records may vary slightly from our data, if they occured in-between our weather recording intervals... More about our weather records

Advertising

Hollywood weather history for previous 24 hours

 ConditionsComfort  
Time TempWeatherWind HumidityBarometerVisibility
4:53 AM
Aug 29
83 °FPassing clouds.No wind77%29.99 "Hg10 mi
3:53 AM83 °FPassing clouds.3 mph77%29.98 "Hg10 mi
2:53 AM83 °FPassing clouds.3 mph79%29.99 "Hg10 mi
1:53 AM84 °FPassing clouds.5 mph77%30.00 "Hg10 mi
12:53 AM85 °FPassing clouds.3 mph77%30.01 "Hg10 mi
11:53 PM
Aug 28
85 °FPassing clouds.6 mph75%30.02 "Hg10 mi
10:53 PM85 °FPassing clouds.5 mph75%30.02 "Hg10 mi
9:53 PM85 °FPassing clouds.6 mph75%30.01 "Hg10 mi
8:53 PM86 °FPassing clouds.6 mph72%29.99 "Hg10 mi
7:53 PM86 °FBroken clouds.7 mph72%29.98 "Hg10 mi
6:53 PM86 °FBroken clouds.10 mph75%29.95 "Hg10 mi
5:53 PM87 °FBroken clouds.16 mph72%29.95 "Hg10 mi
4:53 PM87 °FBroken clouds.16 mph72%29.94 "Hg10 mi
3:53 PM88 °FBroken clouds.15 mph70%29.95 "Hg10 mi
2:53 PM89 °FBroken clouds.12 mph61%29.97 "Hg10 mi
1:53 PM89 °FBroken clouds.15 mph63%29.97 "Hg10 mi
12:53 PM91 °FBroken clouds.No wind57%29.98 "Hg10 mi
11:53 AM90 °FBroken clouds.3 mph61%29.99 "Hg10 mi
10:53 AM85 °FPartly sunny.5 mph72%30.00 "Hg10 mi
9:53 AM85 °FLight rain. Partly sunny.8 mph75%29.98 "Hg7 mi
8:53 AM85 °FScattered clouds.3 mph75%29.98 "Hg10 mi
7:53 AM82 °FPartly cloudy.7 mph85%29.98 "Hg10 mi
6:53 AM83 °FPartly cloudy.No wind77%29.96 "Hg10 mi
Weather by CustomWeather, © 2014

See weather overviewHow to use our weather pages